Wind_Speed
13 7 4 6 10 11 13 12 14 4 13 29 29 29 31 32 42 42 37 36 29 27 26 25 22 22 22 22 25 26 21 8 8 13 14 18 17 14 14 15 13 17 18
15 10 7 5 7 11 11 12 12 10 3 8 20 30 32 31 31 42 45 40 34 32 32 30 25 25 25 24 26 28 22 11 10 14 18 20 20 11 12 12 13 13 16
19 15 11 11 7 10 11 11 12 12 3 5 11 21 31 37 36 32 34 39 37 35 35 33 29 29 28 26 29 30 23 13 9 14 19 22 18 19 15 13 10 12 12
23 18 14 12 7 7 10 10 13 12 11 4 3 10 19 32 39 39 33 30 30 31 32 34 33 33 33 28 32 31 26 14 11 10 17 23 19 18 15 13 11 9 10
24 22 16 13 9 8 10 13 13 13 14 6 3 3 6 18 31 35 37 29 29 28 32 36 35 36 37 33 33 32 27 18 11 10 12 16 20 19 16 16 14 7 3
27 24 22 16 12 12 8 12 13 12 14 10 2 6 4 12 25 32 34 30 30 31 34 36 38 39 39 36 34 30 25 19 14 10 16 16 18 19 24 20 17 14 12
34 31 25 24 20 20 13 12 13 11 10 13 5 6 8 9 19 29 31 28 31 34 36 38 40 42 41 38 39 30 25 17 14 9 16 17 21 18 20 21 20 16 15
43 37 33 30 25 23 19 13 13 11 8 10 6 4 9 10 15 20 27 29 35 34 37 39 43 43 42 38 40 34 26 20 16 10 15 16 17 16 20 23 23 22 22
45 41 38 34 31 26 25 20 16 11 6 4 5 6 10 13 17 20 25 34 38 37 39 41 46 45 43 40 40 39 32 24 17 11 12 19 19 21 19 19 18 19 18
46 45 44 42 37 31 31 27 21 17 12 6 4 6 12 16 19 21 24 35 37 40 43 44 47 48 44 42 41 39 34 27 20 15 8 11 20 17 23 26 21 18 21
36 38 38 39 36 35 32 31 27 23 19 15 11 7 14 18 21 22 25 30 37 40 42 48 49 50 46 44 40 42 36 29 24 21 16 10 12 15 16 19 26 30 24
31 30 32 34 35 35 33 34 33 29 25 22 17 10 11 18 22 20 25 31 33 37 42 49 52 51 47 44 40 41 41 37 32 26 21 18 17 17 18 21 21 23 29
30 31 30 30 30 31 32 33 35 34 31 29 24 18 12 17 20 20 25 31 34 37 42 49 52 51 47 44 41 41 40 38 37 33 26 24 23 22 18 17 17 20 23
32 32 32 32 33 34 33 34 36 38 39 36 32 26 20 16 12 20 25 30 35 37 43 51 52 50 46 47 42 43 39 38 37 36 34 32 28 26 24 23 21 19 24
37 37 37 36 37 37 37 36 36 38 41 43 42 37 30 26 24 24 26 32 33 34 38 48 53 51 47 44 44 44 41 39 36 33 34 34 33 31 27 27 26 25 26
43 42 41 39 37 38 38 40 40 40 39 42 44 43 36 34 28 29 30 34 36 37 39 45 51 52 49 45 44 42 39 38 36 35 37 39 38 37 31 29 28 27 29
45 44 41 39 40 41 42 43 42 44 43 41 42 46 46 42 40 33 34 38 42 41 45 46 48 52 53 50 46 43 41 42 39 37 39 40 40 38 35 33 33 33 33
43 41 40 40 42 43 44 44 44 45 47 47 44 45 49 50 48 44 41 42 45 47 49 49 51 53 55 54 51 49 45 44 41 39 42 41 41 39 37 36 35 36 38
41 39 39 40 42 42 40 41 43 45 46 49 49 48 49 52 54 54 50 47 45 49 52 53 53 55 56 58 53 49 50 50 49 45 42 45 45 42 42 41 37 40 42
36 37 37 37 38 37 36 37 38 39 43 46 49 52 53 53 56 59 59 56 53 52 51 55 55 58 58 62 59 54 51 51 52 49 47 45 48 43 41 40 43 45 48
33 32 32 34 34 35 35 36 37 40 41 42 43 48 53 57 58 60 63 64 62 58 54 54 57 59 60 61 64 58 57 60 58 53 49 48 50 46 44 46 49 56 56
30 29 31 31 28 28 29 30 34 37 41 44 46 47 48 54 59 63 64 66 69 67 63 59 58 58 58 61 63 60 58 58 60 58 57 53 53 53 50 48 45 43 47
30 28 27 26 26 27 29 30 32 34 36 38 41 44 49 54 59 65 68 71 71 72 71 68 67 63 60 57 53 53 55 53 58 59 59 58 56 55 50 54 53 57 59
29 28 26 25 25 27 30 32 33 34 36 39 41 45 49 55 61 68 71 73 74 74 75 75 74 70 68 64 60 57 55 51 52 54 57 59 61 60 55 56 63 64 66
30 28 28 28 28 29 31 32 35 38 41 43 44 48 52 53 61 71 75 75 76 76 77 76 79 77 72 69 66 64 60 57 57 55 53 53 53 55 59 64 64 67 71
33 32 32 32 33 33 34 36 39 43 45 48 49 52 57 57 56 65 74 74 78 77 76 78 78 79 79 75 71 68 66 64 63 57 56 63 59 57 60 64 68 67 66
Wind_Direction
246 260 260 336 352 26 30 30 31 129 215 224 220 215 214 217 210 214 216 220 224 217 218 210 206 204 201 185 188 192 191 148 153 159 155 152 148 146 124 111 101 91 77
235 238 246 284 336 348 19 23 19 22 199 225 228 224 222 220 216 217 218 222 225 214 209 212 206 203 200 190 191 193 199 192 160 176 171 164 161 175 159 131 117 101 86
232 236 247 270 301 327 351 16 12 11 352 232 233 235 230 221 214 213 213 221 223 219 213 212 204 203 197 192 191 191 200 188 163 175 173 179 186 172 164 153 143 126 107
231 231 241 256 272 313 328 1 12 2 3 327 285 233 225 221 215 211 208 209 209 209 212 206 200 198 194 192 186 190 197 199 160 171 184 188 188 168 172 160 177 153 127
233 232 238 244 273 294 313 336 3 358 2 350 356 137 194 211 206 206 209 210 209 209 208 204 196 193 193 191 191 199 201 197 182 192 182 197 199 201 196 184 188 190 173
227 240 246 246 256 275 292 308 333 359 358 351 66 131 120 193 198 202 204 207 207 203 202 199 194 189 193 193 194 200 201 205 202 223 212 207 209 207 215 215 224 238 241
220 228 239 248 256 263 265 282 312 341 358 360 337 140 137 166 180 186 190 193 196 198 198 196 192 190 192 194 195 201 198 208 224 235 212 211 212 228 225 224 228 234 252
229 231 229 237 245 253 255 260 283 309 348 357 335 188 157 164 176 185 190 193 192 198 198 195 194 191 193 195 196 199 200 208 207 218 216 211 222 237 234 228 237 250 256
237 238 241 248 257 249 246 250 258 276 305 336 344 242 200 191 181 190 196 191 191 198 200 198 196 194 197 197 200 204 201 210 207 228 232 224 232 233 235 232 241 250 255
234 237 243 250 253 248 241 246 242 255 266 268 292 239 222 216 207 199 206 201 201 199 201 200 199 197 199 200 202 200 202 210 215 232 263 232 230 235 241 240 245 258 266
232 237 238 241 244 244 243 239 237 239 252 262 268 274 223 211 210 206 204 207 205 202 204 201 202 200 201 203 208 206 209 214 220 239 251 250 238 243 247 248 250 255 259
231 236 238 239 237 238 234 233 237 235 239 250 258 244 236 216 204 216 217 212 210 210 208 205 204 205 205 206 211 214 216 221 227 237 245 252 254 251 251 256 259 259 251
230 234 240 243 245 244 240 234 234 233 236 238 248 246 245 219 213 215 217 215 212 213 210 210 211 211 210 209 214 216 220 224 229 244 252 260 260 253 256 261 265 259 253
231 230 234 239 244 245 245 241 236 232 232 235 237 241 232 227 234 211 211 215 214 212 211 211 215 217 217 214 216 218 223 228 235 247 251 260 260 249 257 267 267 272 266
237 238 238 238 239 241 243 245 243 239 234 234 237 239 233 240 221 223 215 213 215 216 215 215 217 219 221 223 222 222 224 231 240 245 251 250 255 249 252 263 268 266 275
237 239 240 242 244 244 243 243 244 243 239 235 235 235 230 230 236 226 218 220 217 220 221 223 223 223 224 225 226 225 226 229 232 241 248 252 253 246 252 260 263 259 262
240 243 245 248 247 247 247 246 246 246 245 240 236 235 229 225 229 225 219 225 226 224 222 223 224 226 228 231 230 229 230 230 236 243 251 254 248 247 252 260 266 267 273
241 245 249 250 250 249 249 250 250 248 247 244 239 236 234 230 228 226 223 225 224 226 227 228 229 231 231 231 228 231 230 234 237 251 254 249 246 252 259 266 268 270 277
242 247 249 251 252 252 252 250 249 247 246 246 243 237 235 234 231 230 228 228 229 228 225 228 231 233 235 232 232 235 236 236 242 250 253 248 250 254 260 266 268 271 277
241 245 248 250 252 254 252 249 248 248 247 247 244 242 237 234 234 233 231 230 230 229 231 229 230 231 235 234 236 236 237 244 251 250 250 251 250 254 261 263 270 276 278
232 236 242 246 249 252 255 256 255 252 250 248 246 244 242 239 234 233 234 231 230 232 232 233 233 231 233 237 238 240 242 247 251 246 252 253 251 255 261 269 268 272 278
233 236 243 247 247 251 254 257 258 257 255 253 252 247 245 244 242 238 235 234 231 229 232 232 234 233 233 235 239 242 242 247 249 249 252 254 257 257 264 272 278 276 274
236 237 240 246 254 260 263 262 264 264 261 260 259 256 252 248 244 242 239 235 233 232 231 231 232 233 235 237 237 236 236 238 243 250 252 252 254 256 261 264 268 273 271
236 241 244 251 260 265 264 269 270 265 265 267 268 263 259 255 249 244 241 239 236 233 233 233 233 234 235 237 239 238 236 238 242 245 248 251 255 255 256 263 266 269 271
239 243 247 253 259 266 271 274 272 266 270 272 276 274 273 269 256 249 242 240 238 236 233 234 234 235 236 237 238 239 242 241 248 250 253 257 264 268 268 268 271 272 275
243 248 253 258 264 269 277 280 277 274 276 277 282 281 280 278 261 251 245 241 240 238 236 235 234 235 236 237 239 240 242 243 245 247 253 255 254 256 259 266 268 270 272
Height
10946 10947 10947 10945 10944 10941 10940 10938 10936 10935 10936 10937 10939 10941 10944 10947 10950 10955 10960 10965 10969 10974 10979 10982 10986 10989 10992 10995 10999 11002 11005 11008 11009 11006 11004 11006 11007 11008 11006 11003 11006 11007 11003
10943 10944 10945 10944 10943 10941 10939 10937 10935 10933 10932 10932 10934 10937 10939 10942 10946 10951 10956 10960 10965 10969 10974 10978 10982 10986 10990 10994 10998 11001 11004 11009 11008 11005 11004 11006 11008 11010 11009 11006 11007 11010 11008
10939 10941 10942 10941 10941 10940 10938 10936 10933 10931 10929 10928 10928 10929 10930 10934 10939 10943 10947 10954 10960 10965 10970 10973 10978 10983 10987 10992 10996 11000 11004 11008 11008 11007 11005 11006 11006 11008 11011 11008 11009 11012 11011
10934 10937 10938 10939 10938 10938 10936 10934 10932 10930 10926 10925 10923 10922 10922 10924 10931 10938 10943 10949 10954 10959 10964 10968 10973 10979 10985 10990 10995 11000 11003 11007 11008 11008 11006 11006 11008 11009 11010 11010 11012 11014 11013
10930 10932 10934 10936 10936 10936 10935 10933 10931 10928 10925 10923 10920 10918 10918 10920 10924 10933 10940 10946 10951 10955 10959 10964 10970 10975 10982 10989 10994 10998 11003 11007 11008 11010 11009 11008 11008 11009 11011 11013 11015 11015 11014
10926 10928 10930 10932 10933 10933 10934 10933 10930 10927 10925 10921 10919 10917 10918 10918 10921 10927 10934 10940 10946 10950 10954 10960 10965 10971 10979 10986 10992 10997 11003 11006 11008 11009 11009 11010 11010 11011 11013 11014 11015 11014 11013
10921 10924 10926 10927 10929 10930 10931 10931 10930 10927 10924 10921 10919 10918 10917 10918 10921 10923 10929 10936 10942 10946 10951 10956 10962 10967 10974 10982 10989 10995 11001 11004 11005 11006 11008 11009 11010 11011 11012 11013 11013 11013 11012
10912 10917 10919 10922 10924 10926 10928 10928 10928 10926 10925 10923 10921 10920 10919 10919 10921 10924 10927 10931 10938 10943 10949 10954 10960 10964 10972 10978 10985 10991 10996 11000 11002 11003 11004 11006 11008 11009 11009 11010 11010 11010 11010
10904 10908 10912 10915 10918 10922 10923 10925 10926 10925 10924 10923 10922 10921 10921 10920 10921 10923 10926 10929 10933 10938 10944 10950 10956 10962 10968 10974 10980 10986 10990 10995 10997 10999 11000 11002 11004 11006 11007 11008 11008 11007 11007
10897 10901 10905 10908 10911 10915 10919 10920 10922 10922 10922 10921 10921 10921 10921 10922 10922 10924 10927 10930 10933 10937 10939 10945 10951 10957 10963 10970 10976 10982 10986 10990 10992 10995 10996 10997 10999 11001 11003 11004 11005 11004 11004
10890 10893 10898 10901 10904 10908 10911 10914 10916 10918 10919 10919 10919 10919 10918 10920 10922 10923 10925 10930 10933 10937 10941 10943 10947 10953 10959 10965 10972 10978 10982 10985 10988 10991 10993 10993 10995 10996 10998 10999 10999 11000 11001
10883 10886 10889 10893 10896 10899 10903 10906 10909 10912 10915 10915 10917 10917 10917 10918 10920 10922 10925 10928 10933 10939 10942 10945 10947 10951 10956 10962 10968 10974 10978 10981 10984 10987 10988 10990 10992 10993 10994 10993 10993 10993 10994
10878 10880 10882 10885 10888 10891 10894 10898 10901 10905 10908 10911 10913 10915 10915 10917 10919 10920 10923 10926 10929 10932 10938 10945 10948 10951 10956 10960 10965 10969 10974 10979 10982 10984 10986 10987 10988 10988 10988 10988 10988 10988 10988
10870 10874 10877 10879 10881 10883 10886 10889 10892 10896 10900 10904 10908 10911 10913 10914 10916 10917 10920 10924 10926 10928 10932 10938 10945 10949 10953 10956 10959 10964 10969 10974 10977 10979 10981 10982 10983 10983 10982 10983 10983 10983 10983
10861 10864 10867 10870 10873 10876 10879 10881 10884 10888 10891 10895 10899 10905 10908 10910 10911 10913 10915 10920 10924 10928 10931 10935 10940 10944 10948 10951 10956 10959 10964 10967 10970 10973 10974 10976 10977 10977 10977 10976 10978 10979 10979
10851 10854 10858 10862 10866 10868 10870 10873 10875 10878 10883 10887 10891 10896 10900 10903 10907 10909 10912 10915 10917 10922 10926 10932 10936 10940 10943 10946 10949 10953 10957 10961 10963 10965 10967 10967 10969 10970 10970 10971 10970 10971 10972
10840 10845 10850 10854 10856 10858 10860 10862 10866 10868 10872 10877 10882 10886 10890 10894 10898 10901 10905 10909 10912 10916 10918 10921 10925 10931 10936 10940 10944 10947 10951 10953 10956 10958 10959 10959 10960 10962 10963 10963 10963 10964 10964
10832 10837 10839 10841 10844 10847 10850 10853 10855 10858 10861 10865 10871 10875 10878 10882 10887 10891 10895 10898 10901 10906 10911 10914 10918 10923 10927 10930 10934 10938 10942 10945 10947 10949 10952 10951 10951 10954 10953 10954 10954 10955 10954
10823 10827 10829 10831 10832 10835 10839 10842 10844 10846 10849 10852 10857 10862 10866 10870 10875 10879 10885 10889 10893 10896 10899 10902 10907 10911 10915 10919 10923 10928 10932 10935 10936 10939 10941 10942 10943 10945 10944 10943 10944 10943 10942
10814 10817 10819 10821 10823 10825 10828 10831 10833 10834 10836 10839 10843 10847 10852 10857 10862 10867 10871 10876 10880 10883 10888 10891 10895 10899 10903 10908 10911 10917 10921 10925 10924 10929 10929 10930 10932 10933 10933 10934 10933 10932 10930
10806 10809 10811 10812 10815 10816 10818 10821 10822 10822 10824 10827 10830 10833 10837 10841 10847 10851 10856 10862 10866 10871 10876 10880 10884 10887 10890 10894 10897 10906 10909 10909 10911 10916 10917 10919 10921 10921 10922 10922 10921 10919 10919
10797 10800 10802 10804 10806 10807 10809 10810 10809 10811 10812 10814 10817 10821 10824 10828 10831 10835 10839 10844 10850 10856 10861 10867 10870 10872 10876 10881 10884 10893 10897 10897 10897 10903 10904 10906 10908 10910 10911 10910 10909 10907 10906
10788 10792 10794 10795 10797 10798 10799 10800 10800 10801 10801 10802 10804 10807 10809 10812 10813 10814 10817 10823 10829 10836 10843 10848 10853 10859 10864 10867 10872 10878 10883 10884 10886 10890 10890 10894 10895 10897 10897 10897 10896 10894 10892
10780 10783 10785 10787 10789 10790 10789 10790 10790 10791 10790 10789 10790 10792 10792 10793 10792 10792 10796 10802 10809 10817 10824 10830 10836 10842 10848 10853 10858 10864 10868 10871 10874 10877 10878 10881 10882 10884 10883 10882 10880 10879 10877
10773 10775 10777 10779 10780 10781 10780 10780 10780 10779 10777 10777 10777 10774 10771 10773 10770 10768 10775 10781 10789 10797 10805 10811 10819 10826 10833 10839 10843 10849 10854 10859 10862 10864 10865 10868 10870 10872 10869 10866 10866 10864 10860
10764 10766 10768 10770 10771 10771 10771 10770 10768 10766 10765 10762 10762 10755 10751 10749 10745 10743 10751 10761 10767 10776 10785 10793 10802 10810 10817 10822 10827 10833 10838 10843 10847 10851 10855 10855 10856 10857 10852 10851 10848 10845 10841